Flag for Germany Weather past 2 weeks in St. Wendel, Saarland, Germany

Now
72 °F

Clear.


Feels Like: 76 °F
Forecast: 64 / 92 °F
Wind: 6 mph from East

Location: Saarbruecken / Ensheim

Current Time: Jul 2, 2015 at 3:01:14 AM

Latest Report: Jul 2, 2015 at 2:20 AM


Visibility: 10 mi

Pressure: 30.09 "Hg

Humidity: 61%

Dew point: 57 °F

Location of St. WendelLocation

Historic Weather in St. Wendel — Graph

°F

St. Wendel temperature yesterday

Maximum temperature yesterday: 91 °F (at 3:50 PM)
Minimum temperature yesterday: 64 °F (at 5:50 AM)
Average temperature yesterday: 78 °F

Past Weeks' High & Low Weather Summary

 TemperatureHumidityPressure
High91 °F (Jul 1, 3:50 PM)100% (Jun 18, 9:50 AM)30.27 "Hg (Jun 18, 9:50 AM)
Low45 °F (Jun 19, 5:20 AM)24% (Jul 1, 4:20 PM)29.74 "Hg (Jun 22, 9:50 PM)
Average62 °F65%30.10 "Hg
* Reported Jun 17 1:20 AM — Jul 2 1:50 AM, St. Wendel, Weather by CustomWeather, © 2015

Note: Actual official high and low records may vary slightly from our data, if they occured in-between our weather recording intervals... More about our weather records

Advertising

St. Wendel weather history for previous 24 hours

 ConditionsComfort  
Time TempWeatherWind HumidityBarometerVisibility
1:50 AM
Thu, Jul 2
72 °FClear.6 mph61%30.09 "Hg10 mi
1:20 AM72 °FClear.6 mph61%30.09 "Hg10 mi
12:50 AM72 °FClear.7 mph61%30.09 "Hg10 mi
11:50 PM
Wed, Jul 1
73 °FClear.6 mph57%30.07 "Hg10 mi
11:20 PM73 °FClear.6 mph57%30.07 "Hg10 mi
10:50 PM75 °FClear.6 mph54%30.07 "Hg10 mi
10:20 PM77 °FSunny.5 mph54%30.07 "Hg10 mi
9:50 PM79 °FSunny.5 mph48%30.07 "Hg10 mi
9:20 PM82 °FSunny.3 mph42%30.07 "Hg10 mi
8:50 PM84 °FPassing clouds.3 mph37%30.04 "HgN/A
8:20 PM88 °FSunny.6 mph31%30.04 "Hg10 mi
7:50 PM88 °FPassing clouds.6 mph29%30.04 "HgN/A
7:20 PM90 °FSunny.8 mph27%30.04 "Hg10 mi
6:50 PM90 °FPassing clouds.8 mph27%30.04 "HgN/A
6:20 PM90 °FPassing clouds.8 mph27%30.04 "HgN/A
5:50 PM91 °FPassing clouds.9 mph26%30.04 "HgN/A
5:20 PM91 °FPassing clouds.8 mph26%30.04 "HgN/A
4:50 PM91 °FPassing clouds.9 mph26%30.04 "HgN/A
4:20 PM91 °FPassing clouds.9 mph24%30.07 "HgN/A
3:50 PM91 °FPassing clouds.10 mph28%30.07 "HgN/A
3:20 PM90 °FPassing clouds.9 mph27%30.07 "HgN/A
2:50 PM90 °FPassing clouds.12 mph27%30.07 "HgN/A
2:20 PM90 °FPassing clouds.12 mph29%30.07 "HgN/A
1:50 PM90 °FPassing clouds.12 mph29%30.07 "HgN/A
1:20 PM88 °FPleasantly warm.7 mph31%30.07 "HgN/A
12:50 PM88 °FPassing clouds.6 mph29%30.09 "HgN/A
12:20 PM86 °FSunny.6 mph33%30.09 "Hg10 mi
11:50 AM84 °FPassing clouds.6 mph35%30.09 "HgN/A
11:20 AM82 °FPassing clouds.8 mph40%30.09 "HgN/A
10:50 AM81 °FPassing clouds.7 mph42%30.09 "HgN/A
10:20 AM79 °FPassing clouds.6 mph42%30.09 "HgN/A
9:50 AM77 °FPassing clouds.8 mph44%30.09 "HgN/A
9:20 AM75 °FPassing clouds.8 mph47%30.09 "HgN/A
8:50 AM73 °FPassing clouds.9 mph44%30.09 "HgN/A
8:20 AM72 °FSunny.12 mph47%30.09 "Hg10 mi
7:50 AM68 °FSunny.10 mph53%30.09 "Hg10 mi
7:20 AM68 °FSunny.9 mph49%30.09 "Hg10 mi
6:50 AM66 °FSunny.9 mph52%30.09 "Hg10 mi
6:20 AM66 °FClear.10 mph52%30.09 "Hg10 mi
5:50 AM64 °FPassing clouds.9 mph56%30.09 "HgN/A
5:20 AM66 °FMild.10 mph49%30.09 "HgN/A
4:50 AM66 °FClear.10 mph49%30.07 "Hg10 mi
4:20 AM66 °FPassing clouds.6 mph49%30.07 "HgN/A
3:50 AM66 °FPassing clouds.7 mph49%30.07 "HgN/A
3:20 AM66 °FClear.7 mph49%30.07 "Hg10 mi
Weather by CustomWeather, © 2015

See weather overviewHow to use our weather pages